Weather in Koptevka

Russia / Ulyanovsk Oblast     53°10′36″N   47°56′59″E
temp.,
°C
wind,
m/s
gust,
m/s
humid.,
%
clouds,
%
prec.,
mm/h
press.,
hPa
HPBL,
m
9 may, sun
sun901:00+13s2275100 0.0 101320
04:00+12sse227358 0.0 101311
07:00+13se257098 0.0 1013124
10:00+15se3863100 0.0 1012385
13:00+19s5956100 0.0 1012853
16:00+22s7104493 0.0 10112550
19:00+19s4952100 0.0 1012285
22:00+17sse2255100 0.0 101312
10 may, mon
mon1001:00+15ne0160100 0.0 101311
04:00+15ne3666100 0.0 1014101
07:00+14ene3670100 0.0 1016216
10:00+18ene3356100 0.0 1017355
13:00+22e3644100 0.0 10181386
16:00+24ese3535100 0.0 10172665
19:00+18nne81471100 0.0 1019482
22:00+14nne81581100 0.1 1021412
11 may, tue
tue1101:00+13nne71483100 0.1 1022379
04:00+13ne51285100 0.1 1023337
07:00+14ne6118599 0.0 1024324
10:00+17ene6869100 0.0 1025498
13:00+21ene78565 0.0 10251141
16:00+23ne794984 0.0 10251908
19:00+20ne51061100 0.0 1025416
22:00+19ene61261100 0.0 1026413
12 may, wed
wed1201:00+15ene387590 0.0 1026137
04:00+15ene497297 0.0 1026187
07:00+16e41167100 0.0 1026364
10:00+21ese6104664 0.0 10271068
13:00+23ese783765 0.0 10271692
16:00+23ese6733100 0.0 10261969
19:00+20ese2251100 0.0 102643
22:00+17e2258100 0.0 102635
13 may, thu
thu1301:00+15e22635 0.0 102514
04:00+14ene356794 0.0 102579
07:00+15e41069100 0.0 1026291
10:00+20ese6948100 0.0 1025546
13:00+23ese7836100 0.0 10251436
16:00+24se6737100 0.0 10241501
19:00+20ese3857100 0.0 1025205
22:00+17ese226333 0.1 102512